Regional Weather Roundup
Issued by NWS

Home | Current Version | Previous Version | Graphics & Text | Print | Product List | Glossary On
Versions: 1 2 3 4 5 6 7 8 9 10 11 12 13 14 15 16 17 18 19 20 21 22 23 24 25 26 27 28 29 30 31 32 33 34 35 36 37 38 39 40 41 42 43 44 45 46 47 48 49 50
000
ASUS43 KOAX 271710
RWRNE

WEATHER ROUNDUP FOR NEBRASKA
NATIONAL WEATHER SERVICE OMAHA NE
1200 PM CDT WED MAY 27 2015

NOTES: SATELLITE DATA IS BEING USED TO AUGMENT CLOUD COVER ABOVE
       12000 FEET.
       "FAIR" INDICATES FEW OR NO CLOUDS BELOW 12,000 FEET WITH NO
       SIGNIFICANT WEATHER AND/OR OBSTRUCTIONS TO VISIBILITY.

  * THESE STATIONS DO NOT REPORT WEATHER SUCH AS RAIN...SNOW OR FOG.

NEZ001>004-019>022-054>056-271800-
NEBRASKA PANHANDLE

CITY           SKY/WX    TMP DP  RH WIND       PRES   REMARKS
SCOTTSBLUFF    MOSUNNY   65  54  67 SE8       30.04S
ALLIANCE       PTSUNNY   65  54  67 S20G26    30.05S
CHADRON        MOSUNNY   69  55  60 S15       30.01S
KIMBALL          N/A    N/A N/A N/A MISG        N/A
SIDNEY         PTSUNNY   65  55  70 SE10      30.07
$$

NEZ057>060-069>072-079>082-271800-
SOUTHWEST NEBRASKA

CITY           SKY/WX    TMP DP  RH WIND       PRES   REMARKS
NORTH PLATTE   PTSUNNY   71  51  49 SE8       30.09S
IMPERIAL       PTSUNNY   69  56  62 SE15      30.08S
LEXINGTON      CLOUDY    72  48  43 SE12      30.10S
MCCOOK         CLOUDY    70  54  56 SE10      30.09R
OGALLALA       CLOUDY    65  53  65 SE6       30.07F
$$

NEZ005>010-023>029-035>040-094-271800-
NORTH CENTRAL NEBRASKA

CITY           SKY/WX    TMP DP  RH WIND       PRES   REMARKS
VALENTINE      CLOUDY    69  50  50 S10       30.07R
AINSWORTH      CLOUDY    70  50  47 S8        30.08S
BROKEN BOW     PTSUNNY   74  48  39 S10G21    30.09S
O`NEILL        SUNNY     77  49  37 S3        30.08R
ORD            SUNNY     75  47  36 S10       30.08R
THEDFORD       LGT RAIN  62  54  75 S6        30.10S
$$

NEZ041-046>049-061>064-073>077-083>087-271800-
SOUTH CENTRAL NEBRASKA

CITY           SKY/WX    TMP DP  RH WIND       PRES   REMARKS
GRAND ISLAND   SUNNY     76  46  34 VRB7      30.10S
AURORA         SUNNY     76  45  33 CALM      30.09S
HASTINGS       FAIR      75  47  36 S8        30.10R
HEBRON         SUNNY     77  42  28 E7        30.09S
HOLDREGE       PTSUNNY   74  41  30 S9G18     30.10S
KEARNEY *      MOSUNNY   75  46  35 SE10      30.10S
YORK           SUNNY     77  46  33 S3        30.09F
$$

NEZ011>018-030>034-042>045-271800-
NORTHEAST NEBRASKA

CITY           SKY/WX    TMP DP  RH WIND       PRES   REMARKS
NORFOLK        SUNNY     78  54  43 CALM      30.06S
ALBION         MOSUNNY   76  47  34 SW5       30.08S
BLAIR          SUNNY     76  49  38 W6        30.07S
COLUMBUS *     SUNNY     77  50  38 S3        30.09S
FREMONT        SUNNY     77  51  40 W5        30.07S
TEKAMAH        SUNNY     79  55  43 VRB3      30.05S
WAYNE          SUNNY     78  52  40 W5        30.06S
$$

NEZ050>053-065>068-078-088>093-271800-
SOUTHEAST NEBRASKA

CITY           SKY/WX    TMP DP  RH WIND       PRES   REMARKS
LINCOLN        SUNNY     79  51  37 SW3       30.08S
OMAHA EPPLEY   MOSUNNY   77  56  48 CALM      30.06S
BEATRICE       SUNNY     76  49  38 CALM      30.10R
FALLS CITY     SUNNY     78  52  40 VRB3      30.09R
NEBRASKA CITY  SUNNY     77  49  37 NW5       30.09R
PLATTSMOUTH    SUNNY     78  46  31 CALM      30.08R
$$

NEZ044-045-051>053-067-271800-
OMAHA AREA

CITY           SKY/WX    TMP DP  RH WIND       PRES   REMARKS
OMAHA EPPLEY   MOSUNNY   77  56  48 CALM      30.06S
BLAIR          SUNNY     76  49  38 W6        30.07S
FREMONT        SUNNY     77  51  40 W5        30.07S
MILLARD        SUNNY     77  54  44 NW6       30.06S
OFFUTT AFB     SUNNY     77  57  50 VRB2      30.06S
PLATTSMOUTH    SUNNY     78  46  31 CALM      30.08R
WAHOO          FAIR      78  54  43 CALM      30.07S
$$


USA.gov is the U.S. government's official web portal to all federal, state and local government web resources and services.